Location: ?????
(55.6500°N, 37.2500°E)
Time: 11:55:09
(UTC+00:00)

NOSS 0 Rocket - Pass Details

Date: 19 May 2025
Orbit: 933 x 955 km, 70.0° (Epoch: 13 June)

Event Time Altitude Azimuth Distance (km) Brightness Sun altitude
Rises 23:10:55 0° 323° (NW) 3,645 7.4 -11.3°
Reaches altitude 10° 23:13:31 10° 319° (NW) 2,695 6.6 -11.1°
Maximum altitude 23:19:34 53° 244° (WSW) 1,158 4.1 -10.7°
Drops below altitude 10° 23:25:34 10° 170° (S) 2,671 5.8 -10.3°
Enters shadow 23:27:24 - 166° (SSE) 3,337 6.4 -10.2°
